Flag for Switzerland Weather past 2 weeks in Dübendorf, Zurich, Switzerland

Now
71 °F

Mild.


Feels Like: 72 °F
Forecast: 63 / 94 °F
Wind: 3 mph from Northwest

Location: Zurich Town / Ville.

Current Time: Jul 6, 2015 at 5:50:37 AM

Latest Report: Jul 6, 2015 at 4:00 AM


Visibility: N/A

Pressure: 30.11 "Hg

Humidity: 80%

Dew point: 65 °F

Location of DübendorfLocation

Historic Weather in Dübendorf — Graph

°F

Dübendorf temperature yesterday

Maximum temperature yesterday: 93 °F (at 4:00 PM)
Minimum temperature yesterday: 70 °F (at 7:00 AM)
Average temperature yesterday: 82 °F

Past Weeks' High & Low Weather Summary

 TemperatureHumidityPressure
High94 °F (Jul 4, 4:00 PM)97% (Jun 21, 7:00 AM)30.23 "Hg (Jun 21, 7:00 AM)
Low47 °F (Jun 24, 5:00 AM)26% (Jun 25, 8:00 PM)29.70 "Hg (Jun 22, 10:00 PM)
Average70 °F61%30.08 "Hg
* Reported Jun 21 4:00 AM — Jul 6 4:00 AM, Dübendorf, Weather by CustomWeather, © 2015

Note: Actual official high and low records may vary slightly from our data, if they occured in-between our weather recording intervals... More about our weather records

Advertising

Dübendorf weather history for previous 24 hours

 ConditionsComfort  
Time TempWeatherWind HumidityBarometerVisibility
4:00 AM
Mon, Jul 6
71 °FMild.3 mph80%30.11 "HgN/A
3:00 AM71 °FMild.3 mph88%30.10 "HgN/A
2:00 AM79 °FWarm.10 mph56%30.04 "HgN/A
1:00 AM81 °FWarm.3 mph54%30.01 "HgN/A
12:00 AM79 °FWarm.1 mph60%29.98 "HgN/A
11:00 PM
Sun, Jul 5
80 °FWarm.2 mph61%29.97 "HgN/A
10:00 PM85 °FWarm.7 mph51%29.94 "HgN/A
9:00 PM85 °FWarm.2 mph58%29.91 "HgN/A
8:00 PM88 °FHot.3 mph50%29.86 "HgN/A
7:00 PM89 °FHot.1 mph51%29.88 "HgN/A
6:00 PM90 °FHot.2 mph41%29.88 "HgN/A
5:00 PM92 °FHot.5 mph37%29.88 "HgN/A
4:00 PM93 °FExtremely hot.5 mph40%29.90 "HgN/A
3:00 PM93 °FHot.6 mph42%29.92 "HgN/A
2:00 PM92 °FHot.6 mph43%29.95 "HgN/A
1:00 PM88 °FHot.3 mph47%29.96 "HgN/A
12:00 PM86 °FWarm.2 mph48%29.98 "HgN/A
11:00 AM82 °FWarm.2 mph56%30.01 "HgN/A
10:00 AM78 °FWarm.2 mph61%30.04 "HgN/A
9:00 AM75 °FMild.2 mph67%30.06 "HgN/A
8:00 AM74 °FMild.1 mph70%30.06 "HgN/A
7:00 AM70 °FMild.No wind78%30.07 "HgN/A
6:00 AM71 °FMild.1 mph78%30.07 "HgN/A
Weather by CustomWeather, © 2015

See weather overviewHow to use our weather pages